Tracking 30157 objects as of 13-Feb-2025
HD Live streaming from Space Station
objects crossing your sky now

STARLINK-4252

Track STARLINK-4252 now!
10-day predictions
STARLINK-4252 is classified as:


NORAD ID: 53057
Int'l Code: 2022-077Q
Perigee: 568.6 km
Apogee: 571.7 km
Inclination: 97.7 °
Period: 95.9 minutes
Semi major axis: 6941 km
RCS: Unknown
Launch date: July 11, 2022
Source: United States (US)
Launch site: AIR FORCE WESTERN TEST RANGE (AFWTR)
Your satellite tracking list
Your tracking list is empty




NASA's NSSDC Master Catalog

Two Line Element Set (TLE):
1 53057U 22077Q   25043.50241597  .00000364  00000-0  32941-4 0  9991
2 53057  97.6546 226.9161 0002175  40.4258 319.7127 15.01260972142374
Source of the keplerian elements: AFSPC